Location: Devore Heights
(34.2372°N, 117.4156°W)
Time: 22:44:03
(UTC+00:00)

Cosmos 1515 - Visible Passes

Search period start: 15 September 2024 00:00
Search period end: 25 September 2024 00:00
Orbit: 435 x 441 km, 82.5° (Epoch: 14 September)

Date Brightness Start Highest point End Pass type
(mag) Time Alt. Az. Time Alt. Az. Time Alt. Az.
15 Sep 4.0 12:41:34 10° SSW 12:44:39 34° W 12:47:46 10° NNW visible
16 Sep 3.5 12:03:36 24° S 12:05:28 72° E 12:08:49 10° N visible
17 Sep 5.6 11:25:45 21° ESE 11:26:20 23° E 11:29:03 10° NE visible
17 Sep 5.3 12:59:13 11° W 13:00:25 12° WNW 13:01:56 10° NW visible
18 Sep 4.0 12:21:08 33° WNW 12:21:08 33° WNW 12:24:02 10° NNW visible
19 Sep 4.8 11:42:53 33° NNE 11:42:53 33° NNE 11:44:53 10° N visible
20 Sep 6.6 11:04:27 12° NE 11:04:27 12° NE 11:04:54 10° NE visible
21 Sep 5.9 11:59:19 12° NNW 11:59:19 12° NNW 11:59:40 10° NNW visible
